Regional Weather Roundup
Issued by NWS

Home | Current Version | Previous Version | Graphics & Text | Print | Product List | Glossary On
Versions: 1 2 3 4 5 6 7 8 9 10 11 12 13 14 15 16 17 18 19 20 21 22 23 24 25 26 27 28 29 30 31 32 33 34 35 36 37 38 39 40 41 42 43 44 45 46 47 48 49 50
000
ASUS43 KIND 040609
RWRIN

WEATHER ROUNDUP FOR INDIANA
NATIONAL WEATHER SERVICE INDIANAPOLIS IN
200 AM EDT FRI SEP 04 2015

NOTE: "FAIR" INDICATES FEW OR NO CLOUDS BELOW 12,000 FEET WITH NO
SIGNIFICANT WEATHER AND/OR OBSTRUCTIONS TO VISIBILITY.

* - STATION DOES NOT REPORT WEATHER SUCH AS PRECIPITATION OR FOG.

+ - STATION NOT QUALITY CONTROLLED BY THE NATIONAL WEATHER SERVICE.
    USE DATA WITH CAUTION...ESPECIALLY DEWPOINT AND RELATIVE
    HUMIDITY OBSERVATIONS.

INZ001>003-010>013-019-020-040700-
NORTHWEST INDIANA

CITY           SKY/WX    TMP DP  RH WIND       PRES   REMARKS
GARY /AIRPORT/ PTCLDY    73  68  84 NE5       29.97S
KNOX *+        CLEAR     68  68 100 N5        29.95S
LA PORTE +     CLEAR     71  71 100 N3        29.97R
6HR MIN TEMP:  71; 6HR MAX TEMP:  83;

MICHIGAN CITY+ CLEAR     68  68 100 CALM      29.97R
MONTICELLO +   CLEAR     72  70  93 S3        29.94S
6HR MIN TEMP:  72; 6HR MAX TEMP:  83;

RENSSELAER +   CLEAR     72  72 100 N3        29.96R
VALPARAISO     MOCLDY    71  67  87 N3        29.97R
6HR MIN TEMP:  70; 6HR MAX TEMP:  84;


$$

LMZ046-743>745-040700-
SOUTHERN LAKE MICHIGAN

STATION/POSITION TIME  TEMP    WIND        PRES    WAVE
                       AIR SEA DIR/SP/G            HT
                 (UTC) (F)     (DEG/KT/KT) (MB)    (FT)
BURNS HARBOR     0500   72      50/ 10/ 11 1014.9S
MICHIGAN CITY    0500   71      10/  9/ 10   N/A
5NW MICH CITY    0600   72 73   40/  6/  8   N/A     2

$$

INZ004-005-014>016-021>024-040700-
NORTH CENTRAL INDIANA

CITY           SKY/WX    TMP DP  RH WIND       PRES   REMARKS
GOSHEN         CLEAR     70  68  93 W3        29.95R FOG
6HR MIN TEMP:  69; 6HR MAX TEMP:  83;

LOGANSPORT +   CLEAR     72  63  73 SW7       29.96R
PERU/GRISSOM   CLEAR     71  67  88 SW6       29.95R
6HR MIN TEMP:  71; 6HR MAX TEMP:  82;

ROCHESTER +    CLEAR     77  70  78 W5        29.96R
SOUTH BEND     CLEAR     68  66  93 W3        29.96S
6HR MIN TEMP:  68; 6HR MAX TEMP:  83;

WARSAW +       PTCLDY    72  68  88 W5        29.95S

$$

INZ006>009-017-018-025>027-040700-
NORTHEAST INDIANA

CITY           SKY/WX    TMP DP  RH WIND       PRES   REMARKS
ANGOLA *+      PTCLDY    70  61  73 CALM      29.96R
AUBURN +       PTCLDY    73  64  73 CALM      29.95S
FORT WAYNE     PTCLDY    71  67  87 SW3       29.95R
6HR MIN TEMP:  71; 6HR MAX TEMP:  81;

HUNTINGTON +   CLEAR     71  65  82 CALM      29.95S
6HR MIN TEMP:  71; 6HR MAX TEMP:  82;


$$

INZ028-029-035-036-043>045-051>053-040700-
WEST CENTRAL INDIANA

CITY           SKY/WX    TMP DP  RH WIND       PRES   REMARKS
CRAWFORDSVL +  MOCLDY    66  65  99 CALM      29.97R
6HR MIN TEMP:  65; 6HR MAX TEMP:  80;

GREENCASTLE +  CLEAR     68  64  88 CALM      29.98S
LAFAYETTE      CLEAR     70  68  93 CALM      29.95R
6HR MIN TEMP:  70; 6HR MAX TEMP:  83;

TERRE HAUTE    CLEAR     68  66  93 CALM      29.97R
6HR MIN TEMP:  68; 6HR MAX TEMP:  85;


$$

INZ030>032-037>040-046>048-054>057-064-065-040700-
CENTRAL INDIANA

CITY           SKY/WX    TMP DP  RH WIND       PRES   REMARKS
FISHERS *+     CLEAR     70  70 100 CALM      29.97R
FRANKFORT +    CLEAR    N/A N/A N/A SW5       29.98S
GREENWOOD *+   CLEAR     72  64  78 CALM      29.98S
INDIANAPOLIS   CLEAR     73  67  81 SW6       29.96F
6HR MIN TEMP:  73; 6HR MAX TEMP:  84;

-EAGLE CREEK   CLEAR     75  67  76 SW3       29.96S
6HR MIN TEMP:  72; 6HR MAX TEMP:  85;

KOKOMO *+      CLEAR     73  55  53 SW6       29.96S
6HR MIN TEMP:  72; 6HR MAX TEMP:  84;

MARION +       CLEAR     69  60  73 SW6       29.97R
MT COMFORT *+  CLEAR     68  68 100 CALM      29.98S
SHELBYVILLE    CLEAR     69  65  86 S3        29.96F
6HR MIN TEMP:  69; 6HR MAX TEMP:  84;

ZIONSVILLE +   CLEAR     68  64  88 CALM      29.98R
6HR MIN TEMP:  67; 6HR MAX TEMP:  82;


$$

INZ033-034-041-042-049-050-058-059-040700-
EAST CENTRAL INDIANA

CITY           SKY/WX    TMP DP  RH WIND       PRES   REMARKS
MUNCIE         CLEAR     73  66  78 SW6       29.97R
6HR MIN TEMP:  73; 6HR MAX TEMP:  80;


$$

INZ060-061-067>069-081>083-085>088-040700-
SOUTHWEST INDIANA

CITY           SKY/WX    TMP DP  RH WIND       PRES   REMARKS
EVANSVILLE     CLEAR     73  70  90 CALM      29.98R FOG
6HR MIN TEMP:  73; 6HR MAX TEMP:  87;

HUNTINGBURG *+ CLEAR     70  64  83 CALM      29.98S
6HR MIN TEMP:  70; 6HR MAX TEMP:  84;

WASHINGTON +   CLEAR     71  67  88 CALM      29.96S
6HR MIN TEMP:  70; 6HR MAX TEMP:  82;


$$

INZ062-063-066-070>080-084-089>092-040700-
SOUTH CENTRAL AND SOUTHEAST INDIANA

CITY           SKY/WX    TMP DP  RH WIND       PRES   REMARKS
BLOOMINGTON    CLEAR     69  66  90 CALM      29.98S
6HR MIN TEMP:  69; 6HR MAX TEMP:  79;

MADISON *+     CLEAR     68  64  88 CALM      30.01S
NORTH VERNON + CLEAR     72  72 100 CALM      29.98F FOG
SEYMOUR +      CLEAR     66  66 100 CALM      29.97F FOG

$$




USA.gov is the U.S. government's official web portal to all federal, state and local government web resources and services.